Tucumcari, NM

2:11 PM MDT on September 26, 2016 (GMT -0600)
Tucumcari Municipal

Weather History for KTCC - November, 2012

Change the Weather History Date:

Saturday, November 17, 2012

  Actual Average Record
Temperature  
Mean Temperature 53 °F -  
Max Temperature 64 °F 62 °F 82 °F (1966)
Min Temperature 42 °F 33 °F 3 °F (2014)
Degree Days  
Heating Degree Days 12    
Growing Degree Days 3 (Base 50)    
Moisture  
Dew Point 37 °F    
Average Humidity 55    
Maximum Humidity 83    
Minimum Humidity 34    
Precipitation  
Precipitation 0.00 in - - ()
Sea Level Pressure  
Sea Level Pressure 30.09 in    
Wind  
Wind Speed 13 mph (SW)    
Max Wind Speed 21 mph    
Max Gust Speed 25 mph    
Visibility 10 miles    
Events      
Averages and records for this station are not official NWS values.
T = Trace of Precipitation, MM = Missing Value Source: NWS Daily Summary

Daily Weather History Graph

Daily Weather History Graph

Search for Another Location

Airport or City:

Trip Planner

Search our weather history database for the weather conditions in past years. The results will help you decide how hot, cold, wet, or windy it might be!

Date:

Astronomy

Nov. 17, 2012 Rise Set
Actual Time 6:31 AM MST 4:46 PM MST
Civil Twilight 6:04 AM MST 5:14 PM MST
Nautical Twilight 5:33 AM MST 5:44 PM MST
Astronomical Twilight 5:03 AM MST 6:14 PM MST
Moon 10:18 AM MST (11/17) 8:58 PM MST (11/17)
Length of Visible Light 11h 09m
Length of Day
10h 15m
Waxing Crescent, 21% of the Moon is Illuminated
Nov 17
Waxing Crescent
Nov 20
First Quarter
Nov 28
Full
Dec 6
Last Quarter
Dec 13
New

Hourly Weather History & Observations

Time (MST) Temp. Windchill Dew Point Humidity Pressure Visibility Wind Dir Wind Speed Gust Speed Precip Events Conditions
12:53 AM 46.0 °F 41.9 °F 28.0 °F 50% 30.15 in 10.0 mi SW 8.1 mph - N/A   Clear
1:53 AM 46.0 °F 41.0 °F 28.0 °F 50% 30.14 in 10.0 mi SW 10.4 mph - N/A   Clear
2:53 AM 42.1 °F 36.1 °F 28.9 °F 60% 30.13 in 10.0 mi SSW 10.4 mph - N/A   Clear
3:53 AM 46.9 °F - 35.1 °F 63% 30.11 in 10.0 mi SW 13.8 mph - N/A   Clear
4:53 AM 46.9 °F - 37.9 °F 71% 30.12 in 10.0 mi SSW 13.8 mph - N/A   Clear
5:53 AM 46.0 °F 40.2 °F 39.9 °F 79% 30.13 in 10.0 mi SSW 12.7 mph - N/A   Clear
6:53 AM 46.0 °F 39.3 °F 41.0 °F 83% 30.15 in 9.0 mi SW 16.1 mph - N/A   Clear
7:53 AM 48.9 °F - 43.0 °F 80% 30.15 in 10.0 mi SW 19.6 mph - N/A   Clear
8:53 AM 52.0 °F - 41.0 °F 66% 30.16 in 10.0 mi SW 20.7 mph 25.3 mph N/A   Clear
9:53 AM 54.0 °F - 39.9 °F 59% 30.15 in 10.0 mi SSW 19.6 mph - N/A   Clear
10:53 AM 57.0 °F - 39.9 °F 53% 30.13 in 10.0 mi SW 20.7 mph - N/A   Clear
11:53 AM 61.0 °F - 37.9 °F 42% 30.09 in 10.0 mi SW 20.7 mph - N/A   Clear
12:53 PM 64.0 °F - 36.0 °F 35% 30.06 in 10.0 mi SW 19.6 mph 24.2 mph N/A   Clear
1:53 PM 64.0 °F - 35.1 °F 34% 30.04 in 10.0 mi SW 19.6 mph 24.2 mph N/A   Clear
2:53 PM 63.0 °F - 35.1 °F 35% 30.05 in 10.0 mi SSW 18.4 mph - N/A   Clear
3:53 PM 61.0 °F - 36.0 °F 39% 30.03 in 10.0 mi SSW 19.6 mph - N/A   Clear
4:53 PM 57.9 °F - 35.1 °F 42% 30.03 in 10.0 mi SSW 11.5 mph - N/A   Clear
5:53 PM 55.9 °F - 35.1 °F 45% 30.04 in 10.0 mi SSW 15.0 mph - N/A   Clear
6:53 PM 55.9 °F - 36.0 °F 47% 30.05 in 10.0 mi SSW 12.7 mph - N/A   Clear
7:53 PM 54.0 °F - 37.0 °F 53% 30.05 in 10.0 mi WSW 6.9 mph - N/A   Clear
8:53 PM 55.0 °F - 37.9 °F 53% 30.04 in 10.0 mi WSW 4.6 mph - N/A   Clear
9:53 PM 54.0 °F - 39.0 °F 57% 30.04 in 10.0 mi SW 4.6 mph - N/A   Clear
10:53 PM 53.1 °F - 39.9 °F 61% 30.02 in 10.0 mi SW 11.5 mph - N/A   Clear
11:53 PM 50.0 °F - 39.0 °F 66% 30.01 in 10.0 mi Calm Calm - N/A   Clear